When you browse on this site, cookies collect data to enhance your experience and personalize the content and advertising you see.
Visit our Privacy Policy to learn more. By continuing to use the site, you agree to this use of cookies and data.
  • In Hungary
  • List of Countries
  • For 7 days
  • Water Temperature
  • Weather Map
  • News
  • Weather Widgets
  • user-avatar
    Login

    Hourly Weather Grabkowo

    Today, 17 September, Tuesday

    Time Temperature Precipitation Wind Pressure Humidity
    00:00 +9°C° 0.1 mm 5 mps 750 mmHg 78%
    01:00 +10°C° 0 mm 4 mps 750 mmHg 83%
    02:00 +9°C° 0.4 mm 5 mps 750 mmHg 84%
    03:00 +9°C° 0.4 mm 5 mps 749 mmHg 86%
    04:00 +9°C° 0.4 mm 5 mps 749 mmHg 87%
    05:00 +9°C° 0.5 mm 5 mps 749 mmHg 86%
    06:00 +10°C° 0.5 mm 6 mps 748 mmHg 84%
    07:00 +10°C° 0.5 mm 6 mps 748 mmHg 82%
    08:00 +10°C° 0.7 mm 7 mps 747 mmHg 81%
    09:00 +10°C° 0.7 mm 7 mps 747 mmHg 79%
    10:00 +11°C° 0.7 mm 7 mps 746 mmHg 78%
    11:00 +11°C° 1.8 mm 8 mps 746 mmHg 75%
    12:00 +11°C° 1.8 mm 8 mps 746 mmHg 72%
    13:00 +10°C° 1.8 mm 9 mps 745 mmHg 69%
    14:00 +10°C° 0.5 mm 9 mps 745 mmHg 69%
    15:00 +10°C° 0.5 mm 9 mps 744 mmHg 70%
    16:00 +8°C° 0.5 mm 9 mps 744 mmHg 71%
    17:00 +9°C° 0.5 mm 8 mps 744 mmHg 73%
    18:00 +7°C° 0.5 mm 8 mps 743 mmHg 75%
    19:00 +6°C° 0.5 mm 7 mps 743 mmHg 78%
    20:00 +6°C° 0.5 mm 7 mps 743 mmHg 79%
    21:00 +6°C° 0.5 mm 7 mps 743 mmHg 79%
    22:00 +7°C° 0.5 mm 6 mps 744 mmHg 80%
    23:00 +6°C° 1 mm 7 mps 744 mmHg 82%

    Tomorrow, 18 September, Wednesday

    Time Temperature Precipitation Wind Pressure Humidity
    00:00 +8°C° 1 mm 7 mps 745 mmHg 83%
    01:00 +8°C° 1 mm 7 mps 746 mmHg 85%
    02:00 +8°C° 0.2 mm 7 mps 747 mmHg 84%
    03:00 +8°C° 0.2 mm 7 mps 748 mmHg 83%
    04:00 +7°C° 0.2 mm 8 mps 748 mmHg 81%
    05:00 +8°C° 0.1 mm 7 mps 749 mmHg 81%
    06:00 +8°C° 0.1 mm 7 mps 750 mmHg 80%
    07:00 +8°C° 0.1 mm 6 mps 751 mmHg 79%
    08:00 +10°C° 0 mm 7 mps 751 mmHg 73%
    09:00 +11°C° 0 mm 7 mps 752 mmHg 67%
    10:00 +12°C° 0 mm 7 mps 753 mmHg 62%
    11:00 +12°C° 0 mm 7 mps 753 mmHg 60%
    12:00 +12°C° 0 mm 8 mps 753 mmHg 58%
    13:00 +13°C° 0 mm 8 mps 753 mmHg 55%
    14:00 +12°C° 0.1 mm 7 mps 753 mmHg 57%
    15:00 +12°C° 0.1 mm 7 mps 754 mmHg 59%
    16:00 +13°C° 0.1 mm 6 mps 754 mmHg 61%
    17:00 +12°C° 0.4 mm 5 mps 754 mmHg 69%
    18:00 +10°C° 0.4 mm 4 mps 754 mmHg 77%
    19:00 +9°C° 0.4 mm 3 mps 754 mmHg 84%
    20:00 +9°C° 0.4 mm 3 mps 754 mmHg 85%
    21:00 +9°C° 0.4 mm 3 mps 755 mmHg 86%
    22:00 +9°C° 0.4 mm 3 mps 755 mmHg 87%
    23:00 +9°C° 0.1 mm 3 mps 755 mmHg 88%

    Day after tomorrow, 19 September, Thursday

    Time Temperature Precipitation Wind Pressure Humidity
    00:00 +8°C° 0.1 mm 3 mps 755 mmHg 88%
    01:00 +8°C° 0.1 mm 2 mps 755 mmHg 88%
    02:00 +8°C° 0 mm 2 mps 756 mmHg 88%
    03:00 +8°C° 0 mm 3 mps 756 mmHg 87%
    04:00 +8°C° 0 mm 3 mps 756 mmHg 86%
    05:00 +8°C° 0 mm 3 mps 756 mmHg 85%
    06:00 +9°C° 0 mm 3 mps 757 mmHg 84%
    07:00 +9°C° 0 mm 3 mps 757 mmHg 82%
    08:00 +10°C° 0.3 mm 4 mps 758 mmHg 76%
    09:00 +12°C° 0.3 mm 4 mps 758 mmHg 69%
    10:00 +13°C° 0.3 mm 5 mps 759 mmHg 63%
    11:00 +13°C° 0.2 mm 5 mps 759 mmHg 61%
    12:00 +13°C° 0.2 mm 5 mps 760 mmHg 60%
    13:00 +13°C° 0.2 mm 5 mps 760 mmHg 58%
    14:00 +13°C° 0 mm 5 mps 760 mmHg 57%
    15:00 +13°C° 0 mm 4 mps 760 mmHg 57%
    16:00 +12°C° 0 mm 4 mps 760 mmHg 56%
    17:00 +11°C° 0 mm 4 mps 760 mmHg 61%
    18:00 +10°C° 0 mm 3 mps 760 mmHg 66%
    19:00 +9°C° 0 mm 2 mps 760 mmHg 71%
    20:00 +9°C° 0 mm 3 mps 760 mmHg 72%
    21:00 +8°C° 0 mm 3 mps 760 mmHg 74%
    22:00 +8°C° 0 mm 3 mps 760 mmHg 76%
    23:00 +8°C° 0 mm 3 mps 760 mmHg 78%

    20 September, Friday

    Time Temperature Precipitation Wind Pressure Humidity
    00:00 +8°C° 0 mm 2 mps 760 mmHg 80%
    01:00 +8°C° 0 mm 2 mps 760 mmHg 82%
    02:00 +7°C° 0 mm 2 mps 760 mmHg 84%
    03:00 +7°C° 0 mm 2 mps 760 mmHg 86%
    04:00 +7°C° 0 mm 2 mps 760 mmHg 88%
    05:00 +7°C° 0 mm 2 mps 760 mmHg 87%
    06:00 +8°C° 0 mm 2 mps 760 mmHg 86%
    07:00 +8°C° 0 mm 2 mps 760 mmHg 85%
    08:00 +10°C° 0 mm 2 mps 760 mmHg 75%
    09:00 +13°C° 0 mm 2 mps 760 mmHg 66%
    10:00 +14°C° 0 mm 2 mps 761 mmHg 57%
    11:00 +14°C° 0 mm 3 mps 760 mmHg 56%
    12:00 +14°C° 0 mm 3 mps 760 mmHg 55%
    13:00 +16°C° 0 mm 3 mps 760 mmHg 55%
    14:00 +14°C° 0 mm 3 mps 760 mmHg 60%
    15:00 +13°C° 0 mm 3 mps 760 mmHg 65%
    16:00 +13°C° 0 mm 3 mps 759 mmHg 70%
    17:00 +13°C° 0.1 mm 2 mps 760 mmHg 76%
    18:00 +13°C° 0.1 mm 2 mps 760 mmHg 82%
    19:00 +13°C° 0.1 mm 2 mps 760 mmHg 88%
    20:00 +12°C° 0 mm 2 mps 760 mmHg 90%
    21:00 +12°C° 0 mm 2 mps 760 mmHg 92%
    22:00 +12°C° 0 mm 2 mps 760 mmHg 95%
    23:00 +12°C° 0 mm 2 mps 760 mmHg 95%

    21 September, Saturday

    Time Temperature Precipitation Wind Pressure Humidity
    00:00 +12°C° 0 mm 2 mps 760 mmHg 95%
    01:00 +12°C° 0 mm 2 mps 760 mmHg 95%
    02:00 +12°C° 0 mm 2 mps 760 mmHg 95%
    03:00 +12°C° 0 mm 2 mps 760 mmHg 95%
    04:00 +10°C° 0 mm 2 mps 760 mmHg 95%
    05:00 +12°C° 0 mm 2 mps 760 mmHg 94%
    06:00 +12°C° 0 mm 2 mps 760 mmHg 93%
    07:00 +13°C° 0 mm 2 mps 760 mmHg 92%
    08:00 +14°C° 0 mm 2 mps 761 mmHg 86%
    09:00 +16°C° 0 mm 2 mps 761 mmHg 80%
    10:00 +17°C° 0 mm 2 mps 762 mmHg 73%
    11:00 +18°C° 0 mm 2 mps 761 mmHg 70%
    12:00 +19°C° 0 mm 2 mps 761 mmHg 66%
    13:00 +19°C° 0 mm 2 mps 761 mmHg 63%
    14:00 +19°C° 0 mm 2 mps 761 mmHg 65%
    15:00 +19°C° 0 mm 3 mps 761 mmHg 67%
    16:00 +18°C° 0 mm 3 mps 761 mmHg 70%
    17:00 +17°C° 0 mm 2 mps 761 mmHg 77%
    18:00 +15°C° 0 mm 2 mps 761 mmHg 84%
    19:00 +14°C° 0 mm 1 mps 761 mmHg 91%
    20:00 +14°C° 0 mm 1 mps 761 mmHg 91%
    21:00 +13°C° 0 mm 1 mps 761 mmHg 91%
    22:00 +13°C° 0 mm 2 mps 761 mmHg 92%
    23:00 +13°C° 0 mm 2 mps 761 mmHg 91%

    22 September, Sunday

    Time Temperature Precipitation Wind Pressure Humidity
    00:00 +13°C° 0 mm 2 mps 761 mmHg 91%
    01:00 +12°C° 0 mm 2 mps 761 mmHg 91%
    02:00 +12°C° 0 mm 2 mps 761 mmHg 90%
    03:00 +12°C° 0 mm 2 mps 761 mmHg 90%
    04:00 +12°C° 0 mm 2 mps 761 mmHg 90%
    05:00 +12°C° 0 mm 2 mps 761 mmHg 88%
    06:00 +12°C° 0 mm 2 mps 761 mmHg 85%
    07:00 +12°C° 0 mm 3 mps 761 mmHg 83%
    08:00 +14°C° 0 mm 3 mps 761 mmHg 76%
    09:00 +16°C° 0 mm 3 mps 761 mmHg 69%
    10:00 +18°C° 0 mm 3 mps 761 mmHg 62%
    11:00 +19°C° 0 mm 4 mps 761 mmHg 58%
    12:00 +21°C° 0 mm 4 mps 761 mmHg 53%
    13:00 +22°C° 0 mm 5 mps 760 mmHg 49%
    14:00 +21°C° 0 mm 4 mps 760 mmHg 50%
    15:00 +21°C° 0 mm 4 mps 760 mmHg 51%
    16:00 +21°C° 0 mm 4 mps 759 mmHg 52%
    17:00 +20°C° 0 mm 4 mps 759 mmHg 56%
    18:00 +18°C° 0 mm 4 mps 759 mmHg 59%
    19:00 +17°C° 0 mm 4 mps 758 mmHg 63%
    20:00 +16°C° 0 mm 5 mps 758 mmHg 63%
    21:00 +15°C° 0 mm 5 mps 758 mmHg 63%
    22:00 +15°C° 0 mm 5 mps 758 mmHg 63%
    23:00 +15°C° 0 mm 5 mps 758 mmHg 65%
    Show more